Voltar ao catálogo

CZ-6A DEB

AtivoSSO
NORAD 54964·DEBRIS·🇨🇳 China

Lançado Nov 11, 2022 de Taiyuan Satellite Launch Center

Loading…

Próximas Passagens (próximas 24 horas)

TLE

AtualizadoSource: Space-Track

Época: Sep 14, 2026, 10:57 UTC

1 54964U 22151TD  26257.45645568 -.00000075  00000-0 -18941-4 0  9995
2 54964  98.8776 252.5900 0061139 114.0851 246.6730 14.07082571196940

Acompanhe CZ-6A DEB em tempo real com AllMySat

Download on the App Store